Location: Gro�wechsungen
(51.4926°N, 10.6901°E)
Time: 14:13:29
(UTC+00:00)

Cosmos 2082 Rocket - Pass Details

Date: 20 January 2021
Orbit: 832 x 854 km, 71.0° (Epoch: 04 March)

Event Time Altitude Azimuth Distance (km) Brightness Sun altitude
Rises 19:31:59 0° 329° (NNW) 3,438 5.9 -34.6°
Reaches altitude 10° 19:34:27 10° 330° (NNW) 2,498 5.1 -34.9°
Enters shadow 19:37:10 29° 331° (NNW) 1,514 3.7 -35.4°
